Total_Precipitation_Accumulation
1.42 1.66 2.44 2.99 2.97 2.35 1.77 1.26 1.01 1.03 0.97 0.76 0.54 0.48 0.72 1.06 1.35 1.75 1.85 1.49 0.98 0.82 0.81 1.18 1.45 1.28 1.08 1.04 1.08 1.11 1.07 1.04 1.04 1.04 1.08 0.83 0.69 0.64 0.60 0.60 0.58 0.55 0.47 0.47 0.54 0.56 0.53 0.45 0.46
1.19 2.06 3.00 3.42 2.72 1.84 1.56 1.22 1.19 1.04 0.77 0.59 0.44 0.40 0.56 0.62 0.51 0.99 1.80 1.81 1.06 0.89 0.86 1.07 1.42 1.28 1.12 1.10 1.13 1.14 1.13 1.11 1.16 1.13 0.96 0.74 0.71 0.68 0.66 0.68 0.69 0.63 0.51 0.46 0.47 0.52 0.52 0.50 0.53
1.37 2.45 3.11 3.13 1.96 1.54 1.51 1.36 1.21 0.86 0.58 0.52 0.49 0.38 0.49 0.72 0.77 1.09 1.62 1.31 0.94 0.89 0.97 1.33 1.48 1.26 1.13 1.08 1.10 1.22 1.26 1.22 1.20 1.08 0.83 0.72 0.70 0.72 0.72 0.75 0.72 0.67 0.62 0.54 0.49 0.49 0.47 0.48 0.50
1.75 2.65 2.78 2.27 1.69 1.30 1.23 1.27 0.95 0.74 0.56 0.42 0.42 0.44 0.49 0.77 0.91 0.99 1.08 1.01 0.85 0.84 0.89 1.14 1.37 1.22 1.10 1.10 1.15 1.13 1.06 1.06 1.11 1.01 0.82 0.70 0.74 0.74 0.72 0.68 0.66 0.67 0.65 0.60 0.56 0.53 0.50 0.50 0.47
2.32 2.85 2.55 1.95 1.57 1.33 1.11 0.94 0.75 0.79 0.66 0.49 0.44 0.57 0.72 1.06 1.12 1.11 1.08 1.02 0.91 0.87 0.82 0.92 1.13 1.08 1.02 1.08 1.15 1.12 0.99 1.02 1.03 0.97 0.89 0.75 0.72 0.74 0.75 0.65 0.59 0.57 0.57 0.55 0.55 0.52 0.49 0.47 0.48
2.64 2.69 2.52 2.09 1.61 1.38 1.17 0.85 0.67 0.71 0.64 0.56 0.54 0.69 0.97 1.37 1.39 1.43 1.18 1.12 1.05 0.90 0.82 0.80 0.95 0.94 0.91 0.98 1.06 1.07 1.00 1.07 1.03 0.89 0.84 0.78 0.68 0.67 0.66 0.61 0.61 0.58 0.58 0.58 0.56 0.50 0.47 0.46 0.48
2.69 2.57 2.29 1.81 1.59 1.57 1.29 0.77 0.61 0.65 0.63 0.57 0.55 0.73 1.09 1.54 1.49 1.33 1.18 1.08 1.08 0.98 0.89 0.83 0.82 0.84 0.92 1.05 1.02 0.97 1.03 1.12 1.07 0.86 0.78 0.78 0.65 0.58 0.57 0.58 0.59 0.58 0.62 0.66 0.60 0.49 0.44 0.48 0.52
2.08 2.24 2.22 2.01 1.77 1.79 1.19 0.68 0.46 0.45 0.54 0.43 0.45 0.69 1.02 1.30 1.22 1.21 1.17 1.10 1.10 0.97 0.85 0.76 0.74 0.77 0.81 0.93 0.98 0.92 0.90 0.99 0.99 0.87 0.84 0.85 0.69 0.57 0.57 0.55 0.59 0.63 0.66 0.73 0.68 0.58 0.52 0.53 0.56
1.89 2.18 2.43 2.34 1.75 1.56 1.03 0.77 0.47 0.33 0.39 0.39 0.42 0.50 0.67 0.73 0.78 0.93 1.02 0.95 0.98 0.88 0.78 0.72 0.69 0.71 0.76 0.85 0.87 0.95 0.96 0.99 0.91 0.85 0.89 0.79 0.58 0.54 0.57 0.52 0.64 0.75 0.88 0.90 0.82 0.73 0.65 0.60 0.54
2.01 2.18 2.15 1.72 1.23 1.06 1.00 0.83 0.50 0.48 0.56 0.54 0.54 0.55 0.74 0.76 0.79 0.96 0.95 0.91 0.90 0.89 0.79 0.71 0.73 0.70 0.69 0.73 0.97 1.13 1.00 0.90 0.79 0.81 0.79 0.77 0.74 0.71 0.53 0.53 0.69 0.76 0.85 0.89 0.83 0.79 0.66 0.50 0.40
1.47 1.66 1.55 1.28 0.87 0.79 0.83 0.66 0.46 0.58 0.71 0.60 0.61 0.66 0.75 0.84 0.88 0.93 0.96 0.92 0.86 0.83 0.76 0.68 0.66 0.59 0.58 0.72 0.90 1.08 1.13 1.09 1.05 0.90 0.90 0.85 0.77 0.66 0.52 0.49 0.54 0.60 0.68 0.67 0.74 0.73 0.52 0.43 0.44
1.24 1.13 1.14 1.11 0.75 0.76 0.77 0.61 0.59 0.63 0.61 0.47 0.47 0.52 0.64 0.77 0.80 0.84 0.88 0.84 0.72 0.69 0.72 0.65 0.60 0.55 0.52 0.52 0.63 0.79 0.84 0.83 0.84 0.85 0.79 0.80 0.82 0.75 0.64 0.59 0.62 0.65 0.64 0.69 0.76 0.74 0.61 0.52 0.45
1.28 1.13 1.00 1.03 0.84 0.78 0.76 0.60 0.57 0.61 0.50 0.45 0.49 0.57 0.67 0.75 0.77 0.73 0.67 0.66 0.64 0.63 0.64 0.65 0.63 0.59 0.64 0.62 0.58 0.57 0.62 0.68 0.73 0.80 0.72 0.67 0.70 0.73 0.75 0.69 0.74 0.70 0.69 0.71 0.73 0.62 0.60 0.60 0.51
1.07 1.04 1.10 1.10 1.00 0.83 0.82 0.66 0.59 0.70 0.56 0.52 0.57 0.63 0.66 0.73 0.73 0.65 0.59 0.54 0.52 0.60 0.67 0.69 0.62 0.64 0.62 0.57 0.60 0.63 0.62 0.66 0.69 0.73 0.66 0.60 0.60 0.63 0.74 0.73 0.78 0.69 0.71 0.79 0.72 0.66 0.69 0.69 0.60
0.85 1.09 1.20 1.10 1.04 0.94 0.87 0.90 0.71 0.70 0.63 0.64 0.62 0.63 0.68 0.72 0.70 0.67 0.62 0.52 0.47 0.52 0.64 0.73 0.70 0.71 0.66 0.61 0.63 0.67 0.66 0.63 0.66 0.69 0.62 0.58 0.61 0.62 0.75 0.79 0.78 0.75 0.78 0.82 0.85 0.84 0.80 0.71 0.63
0.99 1.21 1.48 1.16 1.05 0.95 1.00 1.09 0.81 0.80 0.74 0.68 0.59 0.60 0.59 0.63 0.64 0.68 0.63 0.54 0.48 0.47 0.56 0.68 0.69 0.73 0.75 0.73 0.73 0.71 0.66 0.67 0.72 0.75 0.70 0.66 0.64 0.67 0.87 0.92 0.82 0.87 0.97 1.01 1.03 0.99 0.91 0.82 0.78
1.29 1.33 1.29 1.16 0.97 0.87 0.95 0.97 0.84 0.81 0.75 0.70 0.56 0.49 0.46 0.48 0.53 0.60 0.57 0.50 0.47 0.47 0.51 0.56 0.63 0.83 0.84 0.79 0.84 0.85 0.81 0.86 0.89 0.92 0.89 0.84 0.81 0.89 1.06 1.13 1.04 1.02 1.17 1.14 1.04 1.05 1.07 0.98 0.99
1.05 0.92 0.89 0.99 0.84 0.81 0.86 0.77 0.79 0.77 0.68 0.63 0.55 0.45 0.40 0.40 0.42 0.43 0.42 0.40 0.38 0.40 0.43 0.49 0.60 0.73 0.82 0.96 1.04 1.11 1.12 1.12 1.23 1.30 1.29 1.12 1.07 1.13 1.28 1.38 1.34 1.30 1.42 1.41 1.29 1.38 1.38 1.28 1.32
0.71 0.71 0.78 0.77 0.64 0.71 0.76 0.69 0.72 0.69 0.64 0.53 0.47 0.40 0.35 0.31 0.33 0.31 0.30 0.31 0.31 0.32 0.35 0.41 0.59 0.76 0.91 1.01 1.14 1.38 1.55 1.64 1.63 1.63 1.70 1.62 1.44 1.52 1.64 1.61 1.82 1.89 1.87 1.87 1.81 1.93 1.96 1.69 1.52
0.66 0.70 0.74 0.67 0.55 0.61 0.66 0.65 0.67 0.62 0.55 0.43 0.39 0.36 0.30 0.26 0.24 0.24 0.22 0.23 0.23 0.23 0.26 0.34 0.50 0.74 0.97 1.18 1.34 1.53 1.84 2.00 2.00 2.06 2.01 1.96 1.85 1.87 1.79 1.87 2.08 2.13 2.24 2.33 2.17 2.30 2.38 2.07 1.76
0.60 0.60 0.63 0.59 0.61 0.61 0.61 0.66 0.70 0.67 0.52 0.39 0.31 0.29 0.24 0.20 0.21 0.22 0.22 0.20 0.18 0.18 0.21 0.27 0.41 0.64 0.93 1.22 1.47 1.65 1.88 2.14 2.24 2.15 2.10 2.13 2.21 2.26 2.15 2.11 2.23 2.25 2.32 2.52 2.56 2.51 2.61 2.53 2.20
0.68 0.45 0.43 0.46 0.55 0.70 0.61 0.80 0.73 0.68 0.57 0.43 0.34 0.30 0.26 0.22 0.21 0.20 0.20 0.23 0.20 0.21 0.22 0.26 0.41 0.57 0.77 1.02 1.34 1.59 1.84 2.15 2.22 2.20 2.18 2.21 2.33 2.42 2.38 2.33 2.39 2.40 2.35 2.48 2.57 2.55 2.76 2.93 2.66
0.53 0.35 0.37 0.45 0.44 0.49 0.46 0.67 0.72 0.60 0.61 0.52 0.43 0.37 0.30 0.25 0.24 0.21 0.19 0.22 0.27 0.26 0.27 0.34 0.48 0.62 0.79 1.01 1.32 1.64 1.83 1.99 2.19 2.20 2.12 2.05 2.12 2.14 2.12 2.24 2.39 2.41 2.38 2.39 2.58 2.70 2.87 2.86 2.78
0.38 0.38 0.39 0.41 0.43 0.50 0.36 0.50 0.67 0.62 0.55 0.53 0.46 0.39 0.28 0.21 0.22 0.25 0.28 0.29 0.31 0.36 0.40 0.48 0.60 0.80 0.93 1.01 1.13 1.30 1.51 1.79 1.92 2.02 2.06 2.07 2.07 1.95 1.88 1.98 2.09 2.18 2.23 2.22 2.28 2.44 2.58 2.75 2.89
0.34 0.48 0.62 0.62 0.62 0.55 0.29 0.42 0.54 0.47 0.41 0.44 0.42 0.38 0.32 0.29 0.31 0.39 0.49 0.45 0.44 0.48 0.59 0.66 0.73 0.82 0.86 0.84 0.89 1.01 1.17 1.39 1.52 1.62 1.81 1.88 1.92 1.87 1.82 1.80 1.87 1.95 2.00 2.10 2.27 2.26 2.29 2.47 2.66
0.32 0.39 0.59 0.67 0.60 0.49 0.41 0.54 0.56 0.46 0.40 0.40 0.40 0.34 0.31 0.35 0.43 0.57 0.69 0.73 0.70 0.69 0.72 0.70 0.73 0.69 0.69 0.72 0.77 0.83 0.89 1.02 1.14 1.21 1.37 1.50 1.50 1.48 1.47 1.54 1.64 1.79 1.89 1.98 2.13 2.17 2.13 2.21 2.27
0.27 0.23 0.25 0.40 0.40 0.45 0.49 0.61 0.60 0.43 0.37 0.39 0.41 0.35 0.35 0.47 0.59 0.75 0.88 0.95 0.91 0.83 0.78 0.75 0.77 0.74 0.66 0.66 0.73 0.79 0.82 0.83 0.86 0.90 0.89 0.98 1.06 1.09 1.15 1.22 1.36 1.55 1.69 1.76 1.86 2.00 2.00 2.06 2.05
0.19 0.19 0.25 0.44 0.60 0.62 0.55 0.62 0.70 0.58 0.46 0.47 0.51 0.54 0.61 0.77 0.83 0.93 1.01 1.00 0.98 1.03 0.99 0.83 0.78 0.80 0.73 0.79 0.80 0.76 0.74 0.71 0.69 0.72 0.77 0.79 0.87 0.98 1.08 1.10 1.18 1.31 1.40 1.51 1.69 1.83 1.90 1.93 1.90
0.17 0.21 0.33 0.49 0.57 0.74 0.86 0.94 0.76 0.62 0.62 0.61 0.66 0.83 0.88 0.96 1.02 1.04 1.11 1.04 0.91 0.92 0.90 0.89 0.85 0.81 0.82 0.85 0.85 0.74 0.71 0.70 0.69 0.66 0.68 0.77 0.85 0.95 1.01 1.07 1.12 1.15 1.25 1.31 1.42 1.58 1.71 1.74 1.76
0.29 0.41 0.54 0.78 0.77 0.73 1.01 1.17 0.83 0.69 0.71 0.73 0.72 0.71 0.71 0.87 0.98 1.00 1.06 0.98 0.83 0.79 0.70 0.74 0.82 0.84 0.92 0.92 0.84 0.75 0.73 0.75 0.81 0.78 0.70 0.71 0.77 0.79 0.90 1.04 1.04 1.05 1.11 1.19 1.31 1.41 1.46 1.56 1.53